Date String (YYYY-MM-DD hh:mm:ss) UTC,Instrument flags,Ambient pressure (hPa),Sample flow (lpm),Bypass flow (lpm),Sample temperature (°C),Ambient temperature (°C),ASC tube jacket temperature (°C),LED temperature (°C),Box temperature (°C),Sample RH (%),Span deviation,Mass concentration (μg/m³),Mass concentration (μg/m³),Mass concentration (μg/m³)
DateTimeUTC,F1_M11,P_M11,Q1_M11,Q2_M11,T1_M11,T2_M11,T3_M11,T4_M11,T5_M11,U1_M11,ZSPAN_M11,X2_M11,X0_M11,X1_M11
2022-08-12 22:00:00,,0829.9,5.01,0.00,29.1,27.2,00.0,37.9,30.9,29.4,0000.0,0005.00,0017.62,0003.80
2022-08-12 22:01:00,,0829.8,4.99,0.00,29.1,27.4,00.0,37.9,30.9,29.3,0000.0,0005.01,0017.03,0003.81
2022-08-12 22:02:00,,0829.8,5.01,0.00,29.1,27.6,00.0,37.9,31.0,29.3,0000.0,0005.05,0018.06,0003.81
2022-08-12 22:03:00,,0829.8,5.01,0.00,29.2,27.8,00.0,37.9,31.1,29.3,0000.0,0005.02,0017.95,0003.80
2022-08-12 22:04:00,,0829.8,4.99,0.00,29.2,28.1,00.0,37.9,31.2,29.2,0000.0,0005.01,0017.84,0003.81
2022-08-12 22:05:00,,0829.8,5.01,0.00,29.3,28.1,00.0,37.9,31.2,29.2,0000.0,0005.07,0018.82,0003.81
2022-08-12 22:06:00,,0829.7,4.99,0.00,29.2,27.7,00.0,37.9,31.1,29.2,0000.0,0005.02,0019.15,0003.81
2022-08-12 22:07:00,,0829.7,5.00,0.00,29.2,27.3,00.0,37.9,30.9,29.5,0000.0,0004.95,0018.26,0003.80
2022-08-12 22:08:00,,0829.6,4.98,0.00,29.1,27.3,00.0,37.9,30.9,29.5,0000.0,0004.95,0019.82,0003.79
2022-08-12 22:09:00,,0829.6,5.01,0.00,29.1,27.4,00.0,37.9,30.9,29.8,0000.0,0004.95,0021.34,0003.79
2022-08-12 22:10:00,,0829.7,4.99,0.00,29.1,27.6,00.0,37.9,30.9,29.8,0000.0,0004.95,0021.33,0003.78
2022-08-12 22:11:00,,0829.8,4.99,0.00,29.1,27.8,00.0,37.9,31.1,29.3,0000.0,0004.97,0020.66,0003.77
2022-08-12 22:12:00,,0829.8,5.01,0.00,29.2,28.0,00.0,37.9,31.2,29.1,0000.0,0004.96,0021.59,0003.77
2022-08-12 22:13:00,,0829.8,5.01,0.00,29.3,28.2,00.0,37.9,31.2,28.7,0000.0,0004.95,0020.45,0003.78
2022-08-12 22:14:00,,0829.7,4.99,0.00,29.3,27.9,00.0,37.9,31.1,28.7,0000.0,0004.97,0019.84,0003.78
2022-08-12 22:15:00,,0829.8,4.99,0.00,29.2,27.4,00.0,37.9,31.0,28.9,0000.0,0004.95,0019.61,0003.78
2022-08-12 22:16:00,,0829.7,5.01,0.00,29.2,27.2,00.0,37.9,30.9,28.8,0000.0,0004.91,0019.34,0003.77
2022-08-12 22:17:00,,0829.8,5.01,0.00,29.1,27.3,00.0,37.9,30.9,28.8,0000.0,0004.93,0018.27,0003.76
2022-08-12 22:18:00,,0829.7,4.99,0.00,29.1,27.5,00.0,37.9,30.9,29.2,0000.0,0004.97,0017.96,0003.74
2022-08-12 22:19:00,,0829.7,5.01,0.00,29.1,27.7,00.0,37.9,31.0,28.4,0000.0,0004.93,0016.35,0003.73
2022-08-12 22:20:00,,0829.8,4.99,0.00,29.2,27.9,00.0,37.9,31.1,28.1,0000.0,0004.87,0014.70,0003.71
2022-08-12 22:21:00,,0829.8,5.00,0.00,29.2,28.1,00.0,37.9,31.2,27.9,0000.0,0004.88,0014.35,0003.69
2022-08-12 22:22:00,,0829.7,4.99,0.00,29.3,28.2,00.0,37.9,31.2,27.8,0000.0,0004.87,0014.45,0003.68
2022-08-12 22:23:00,,0829.8,5.01,0.00,29.3,27.7,00.0,37.9,31.1,27.8,0000.0,0004.87,0014.36,0003.66
2022-08-12 22:24:00,,0829.8,4.99,0.00,29.2,27.3,00.0,37.9,31.0,28.0,0000.0,0004.86,0014.39,0003.63
2022-08-12 22:25:00,,0829.8,5.01,0.00,29.2,27.3,00.0,37.9,31.0,28.2,0000.0,0004.82,0014.62,0003.63
2022-08-12 22:26:00,,0829.8,4.99,0.00,29.1,27.4,00.0,37.9,30.9,28.2,0000.0,0004.79,0014.81,0003.61
2022-08-12 22:27:00,,0829.8,5.01,0.00,29.1,27.6,00.0,37.9,31.0,28.6,0000.0,0004.74,0014.98,0003.59
2022-08-12 22:28:00,,0829.7,5.00,0.00,29.2,27.8,00.0,37.9,31.1,29.4,0000.0,0004.74,0015.44,0003.60
2022-08-12 22:29:00,,0829.8,4.99,0.00,29.2,28.0,00.0,37.9,31.2,29.3,0000.0,0004.71,0015.77,0003.62
2022-08-12 22:30:00,,0829.8,5.00,0.00,29.3,28.2,00.0,38.0,31.3,29.3,0000.0,0004.76,0015.94,0003.64
2022-08-12 22:31:00,,0829.8,5.01,0.00,29.3,28.0,00.0,37.9,31.2,29.1,0000.0,0004.91,0016.76,0003.67
2022-08-12 22:32:00,,0829.8,4.99,0.00,29.2,27.4,00.0,37.9,31.0,29.3,0000.0,0004.94,0016.75,0003.68
2022-08-12 22:33:00,,0829.7,5.01,0.00,29.2,27.2,00.0,37.9,30.9,29.2,0000.0,0004.93,0017.35,0003.68
2022-08-12 22:34:00,,0829.8,4.99,0.00,29.2,27.3,00.0,37.9,30.9,29.7,0000.0,0004.93,0016.88,0003.70
2022-08-12 22:35:00,,0829.7,5.01,0.00,29.1,27.5,00.0,37.9,30.9,29.4,0000.0,0004.95,0017.32,0003.72
2022-08-12 22:36:00,,0829.7,4.99,0.00,29.2,27.7,00.0,37.9,31.0,29.2,0000.0,0004.96,0016.88,0003.74
2022-08-12 22:37:00,,0829.7,5.00,0.00,29.2,27.9,00.0,37.9,31.1,29.2,0000.0,0004.99,0016.58,0003.75
2022-08-12 22:38:00,,0829.7,5.01,0.00,29.3,28.1,00.0,37.9,31.2,29.1,0000.0,0005.02,0018.48,0003.76
2022-08-12 22:39:00,,0829.6,5.00,0.00,29.3,27.9,00.0,37.9,31.1,29.0,0000.0,0005.02,0019.95,0003.77
2022-08-12 22:40:00,,0829.6,4.99,0.00,29.2,27.3,00.0,37.9,30.9,29.2,0000.0,0005.04,0019.55,0003.77
2022-08-12 22:41:00,,0829.8,5.00,0.00,29.2,27.1,00.0,37.9,30.9,29.2,0000.0,0005.25,0030.19,0003.77
2022-08-12 22:42:00,,0829.6,5.00,0.00,29.1,27.2,00.0,37.9,30.9,29.3,0000.0,0005.17,0030.26,0003.76
2022-08-12 22:43:00,,0829.8,5.00,0.00,29.1,27.4,00.0,37.9,30.9,29.3,0000.0,0005.14,0030.66,0003.77
2022-08-12 22:44:00,,0829.9,4.99,0.00,29.1,27.6,00.0,37.9,31.0,29.3,0000.0,0005.14,0029.57,0003.77
2022-08-12 22:45:00,,0829.7,5.01,0.00,29.2,27.8,00.0,37.9,31.1,29.5,0000.0,0005.14,0029.46,0003.76
2022-08-12 22:46:00,,0830.0,5.00,0.00,29.2,28.1,00.0,37.9,31.2,29.1,0000.0,0005.09,0028.82,0003.75
2022-08-12 22:47:00,,0829.9,5.01,0.00,29.3,28.1,00.0,37.9,31.2,29.3,0000.0,0005.28,0035.50,0003.75
2022-08-12 22:48:00,,0829.7,4.99,0.00,29.3,27.6,00.0,37.9,31.0,29.1,0000.0,0005.28,0037.06,0003.75
2022-08-12 22:49:00,,0829.6,5.01,0.00,29.2,27.2,00.0,37.9,30.9,28.8,0000.0,0005.28,0035.55,0003.74
2022-08-12 22:50:00,,0829.6,5.00,0.00,29.2,27.2,00.0,37.9,30.9,29.0,0000.0,0005.31,0033.21,0003.74
2022-08-12 22:51:00,,0829.6,5.00,0.00,29.1,27.3,00.0,37.9,30.9,29.5,0000.0,0005.28,0033.09,0003.74
2022-08-12 22:52:00,,0829.6,4.99,0.00,29.1,27.5,00.0,37.9,30.9,29.2,0000.0,0005.02,0023.31,0003.72
2022-08-12 22:53:00,,0829.5,5.01,0.00,29.2,27.7,00.0,37.9,31.0,29.5,0000.0,0004.97,0021.61,0003.71
2022-08-12 22:54:00,,0829.5,5.01,0.00,29.2,28.0,00.0,37.9,31.2,29.0,0000.0,0004.94,0020.84,0003.71
2022-08-12 22:55:00,,0829.5,5.00,0.00,29.3,28.1,00.0,37.9,31.2,29.2,0000.0,0004.93,0021.12,0003.70
2022-08-12 22:56:00,,0829.5,4.99,0.00,29.2,27.6,00.0,37.9,31.0,29.8,0000.0,0004.91,0021.29,0003.70
2022-08-12 22:57:00,,0829.6,5.01,0.00,29.2,27.2,00.0,37.8,30.9,29.8,0000.0,0004.93,0020.94,0003.70
2022-08-12 22:58:00,,0829.6,5.00,0.00,29.1,27.2,00.0,37.8,30.9,29.8,0000.0,0004.77,0015.98,0003.70
2022-08-12 22:59:00,,0829.5,4.99,0.00,29.1,27.3,00.0,37.8,30.9,29.4,0000.0,0004.77,0016.30,0003.69
